Regional Weather Roundup
Issued by NWS

Home | Current Version | Previous Version | Text Only | Print | Product List | Glossary Off
Versions: 1 2 3 4 5 6 7 8 9 10 11 12 13 14 15 16 17 18 19 20 21 22 23 24 25 26 27 28 29 30 31 32 33 34 35 36 37 38 39 40 41 42 43 44 45 46 47 48 49 50

000
ASUS45 KABQ 200601
RWRNM
WEATHER ROUNDUP FOR NEW MEXICO
NATIONAL WEATHER SERVICE ALBUQUERQUE NM
1200 AM MDT SUN APR 20 2014

NOTE: "FAIR" MEANS FEW OR NO CLOUDS BELOW 12,000 FEET AGL WITH NO
       SIGNIFICANT WEATHER OR OBSTRUCTIONS TO VISION.

      THIS PRODUCT IS RELEASED AS TWO VERSIONS.  ONE VERSION NEAR
      THE TOP OF THE HOUR CONTAINING PRELIMINARY DATA FROM ALBUQUERQUE
      AND OTHER STATIONS.  A FINAL VERSION WITH ADDITIONAL DATA IS
      ISSUED ABOUT 10 MINUTES AFTER THE HOUR.

NMZ501-503-504-510>518-200700-
NORTHWEST PLATEAU/NORTHCENTRAL MOUNTAINS

CITY           SKY/WX    TMP DP  RH WIND       PRES   REMARKS
FARMINGTON     MOCLDY    53  35  50 NW3       30.08R
6HR MIN TEMP:  52; 6HR MAX TEMP:  69;

LOS ALAMOS     DRIZZLE   50  35  57 W9        30.16F
SANTA FE       CLOUDY    48  44  86 E5        30.13F
6HR MIN TEMP:  48; 6HR MAX TEMP:  53; 6HR PCP: TRACE;

TAOS           CLOUDY    45  37  76 SE6       30.18S
ANGEL FIRE     CLOUDY    43  37  81 CALM      30.20S

$$
NMZ402-403-502-505>509-200700-
WESTCENTRAL MOUNTAINS/SOUTHWEST MOUNTAINS

CITY           SKY/WX    TMP DP  RH WIND       PRES   REMARKS
GALLUP         CLOUDY    45  39  79 S3        30.19R
6HR MIN TEMP:  43; 6HR MAX TEMP:  61; 6HR PCP: TRACE;

SILVER CITY    CLOUDY    50  41  71 NW8       30.17F

$$
NMZ407-409-411-412-200700-
SOUTHERN DESERTS

CITY           SKY/WX    TMP DP  RH WIND       PRES   REMARKS
DEMING         MOCLDY    50  45  83 CALM      30.11F
6HR MIN TEMP:  49; 6HR MAX TEMP:  62; 6HR PCP:  0.01;

LAS CRUCES     CLEAR     48  42  77 W5        30.13S
HOLLOMAN AFB   PTCLDY    50  50  99 SW3       30.12R
T OR C         CLOUDY    52  48  86 W6        30.12S
6HR MIN TEMP:  52; 6HR MAX TEMP:  62; 6HR PCP:  0.06;


$$
NMZ519>523-200700-
CENTRAL VALLEYS/CENTRAL HIGHLANDS

CITY           SKY/WX    TMP DP  RH WIND       PRES   REMARKS
ALBUQUERQUE    LGT RAIN  52  45  77 SW5       30.14R
6HR MIN TEMP:  50; 6HR MAX TEMP:  60; 6HR PCP:  0.01;

DOUBLE EAGLE   CLOUDY    50  42  74 W9        30.15R
CLINES CORNERS CLOUDY    45  41  86 W10       30.14F
6HR MIN TEMP:  43; 6HR MAX TEMP:  52; 6HR PCP:  0.06;

BELEN          LGT RAIN  50  48  93 SW7       30.14S
6HR MIN TEMP:  50; 6HR MAX TEMP:  61; 6HR PCP:  0.02;

SOCORRO        NOT AVBL

$$
NMZ524>526-539-540-200700-
SOUTHCENTRAL MOUNTAINS

CITY           SKY/WX    TMP DP  RH WIND       PRES   REMARKS
RUIDOSO        NOT AVBL

$$
NMZ527>531-200700-
NORTHEAST HIGHLANDS/NORTHEAST PLAINS

CITY           SKY/WX    TMP DP  RH WIND       PRES   REMARKS
LAS VEGAS      CLOUDY    45  41  86 S10       30.13S
6HR MIN TEMP:  43; 6HR MAX TEMP:  48;

RATON          CLOUDY    50  42  74 SW3       30.09S
6HR MIN TEMP:  49; 6HR MAX TEMP:  57;

CLAYTON        CLOUDY    53  45  74 S12       30.07S
6HR MIN TEMP:  53; 6HR MAX TEMP:  63;


$$
NMZ532>537-200700-
EASTCENTRAL PLAINS

CITY           SKY/WX    TMP DP  RH WIND       PRES   REMARKS
TUCUMCARI      CLOUDY    55  50  83 W7        30.04F
6HR MIN TEMP:  53; 6HR MAX TEMP:  62;

CANNON AFB     PTCLDY    51  49  93 SW6       30.08F
6HR MIN TEMP:  51; 6HR MAX TEMP:  58;

CLOVIS AIRPORT CLEAR     52  46  82 S7        30.11F

$$
NMZ028-029-538-200700-
SOUTHEAST PLAINS

CITY           SKY/WX    TMP DP  RH WIND       PRES   REMARKS
ROSWELL        CLEAR     53  47  79 S12       30.06F
6HR MIN TEMP:  53; 6HR MAX TEMP:  65; 6HR PCP: TRACE;

CARLSBAD       PTCLDY    57  54  89 S7        30.10F
6HR MIN TEMP:  57; 6HR MAX TEMP:  65; 6HR PCP:  0.24;

HOBBS          FAIR      54  54 100 S7        30.12S


$$



USA.gov is the U.S. government's official web portal to all federal, state and local government web resources and services.